全部
Reutte heliport Airport (Reutte, Tyrol, Austria) LOIE 天氣
There is no TAF data available at LOIE or any nearby airports.
There is no METAR data available at LOIE. Showing METAR data for ETHA (26 mi N).
ETHA近期METAR歷史資料(LOIE無資料)
| Date | Time (CEST) | Flight Rules | Wind Dir. | Speed | Type | Height AGL (ft) | Visibility | Temp (°C) | Temp (°F) | Dew Point (°C) | Dew Point (°F) | Rel. Humid. | Pressure | Density Altitude | Remarks |
|---|---|---|---|---|---|---|---|---|---|---|---|---|---|---|---|
| 03-五月 | 08:20 | VFR | Variable | 2 kt | 10000 meters | 13° | 55° | 7° | 44° | 67% | 1016 mb | 2,576 ft | |||
| 03-五月 | 07:20 | VFR | 250° | 3 kt | 10000 meters | 9° | 48° | 5° | 41° | 76% | 1017 mb | 2,066 ft | |||
| 03-五月 | 06:20 | VFR | 230° | 3 kt | 10000 meters | 7° | 44° | 4° | 39° | 81% | 1017 mb | 1,826 ft | |||
| 03-五月 | 05:20 | VFR | 210° | 6 kt | 10000 meters | 9° | 48° | 5° | 41° | 76% | 1017 mb | 2,066 ft | |||
| 03-五月 | 04:20 | VFR | 230° | 5 kt | 10000 meters | 8° | 46° | 5° | 41° | 81% | 1017 mb | 1,946 ft | |||
| 03-五月 | 03:20 | VFR | 230° | 4 kt | 10000 meters | 9° | 48° | 4° | 39° | 71% | 1017 mb | 2,066 ft | |||
| 03-五月 | 02:20 | VFR | 250° | 3 kt | 10000 meters | 10° | 50° | 4° | 39° | 66% | 1017 mb | 2,186 ft | |||
| 03-五月 | 01:20 | VFR | 240° | 3 kt | 10000 meters | 10° | 50° | 4° | 39° | 66% | 1018 mb | 2,157 ft | |||
| 03-五月 | 00:20 | VFR | 230° | 3 kt | 10000 meters | 10° | 50° | 4° | 39° | 66% | 1018 mb | 2,157 ft | |||
| 02-五月 | 23:20 | VFR | Variable | 1 kt | 10000 meters | 12° | 53° | 4° | 39° | 58% | 1018 mb | 2,397 ft | |||
| 02-五月 | 22:20 | VFR | 20° | 1 kt | 10000 meters | 15° | 59° | 4° | 39° | 48% | 1019 mb | 2,727 ft | |||
| 02-五月 | 21:20 | VFR | 60° | 2 kt | 10000 meters | 17° | 62° | 5° | 41° | 45% | 1018 mb | 2,997 ft | |||
| 02-五月 | 20:20 | VFR | 70° | 3 kt | 10000 meters | 19° | 66° | 6° | 42° | 43% | 1018 mb | 3,237 ft | |||
| 02-五月 | 19:20 | VFR | 50° | 6 kt | 10000 meters | 19° | 66° | 7° | 44° | 46% | 1018 mb | 3,237 ft | |||
| 02-五月 | 18:20 | VFR | 50° | 4 kt | 10000 meters | 22° | 71° | 5° | 41° | 33% | 1019 mb | 3,567 ft | |||
| 02-五月 | 17:20 | VFR | 30° | 4 kt | 10000 meters | 23° | 73° | 5° | 41° | 31% | 1019 mb | 3,687 ft | |||
| 02-五月 | 16:20 | VFR | 90° | 4 kt | 10000 meters | 23° | 73° | 5° | 41° | 31% | 1020 mb | 3,658 ft | |||
| 02-五月 | 15:20 | VFR | 80° | 6 kt | 10000 meters | 22° | 71° | 5° | 41° | 33% | 1020 mb | 3,538 ft | |||
| 02-五月 | 14:20 | VFR | 40° | 5 kt | 10000 meters | 22° | 71° | 5° | 41° | 33% | 1021 mb | 3,508 ft | |||
| 02-五月 | 13:20 | VFR | 260° | 6 kt | 10000 meters | 22° | 71° | 5° | 41° | 33% | 1022 mb | 3,479 ft | |||
| 02-五月 | 12:20 | VFR | 320° | 4 kt | 10000 meters | 21° | 69° | 4° | 39° | 33% | 1022 mb | 3,359 ft | |||
| 02-五月 | 11:20 | VFR | 270° | 5 kt | 10000 meters | 20° | 68° | 2° | 35° | 30% | 1023 mb | 3,209 ft | |||
| 02-五月 | 10:20 | VFR | Variable | 2 kt | 10000 meters | 19° | 66° | 4° | 39° | 37% | 1023 mb | 3,089 ft | |||
| 02-五月 | 09:20 | VFR | 200° | 2 kt | 10000 meters | 14° | 57° | 5° | 41° | 55% | 1023 mb | 2,489 ft |
登入
| 您的瀏覽器不支援. 升級您的瀏覽器 |
